Location: Izdebno
(52.6670°N, 16.2170°E)
Time: 09:37:47
(UTC+01:00)

Transit 2A - Pass Details

Date: 06 February 2023
Orbit: 591 x 964 km, 66.7° (Epoch: 21 March)

Event Time Altitude Azimuth Distance (km) Brightness Sun altitude
Rises 17:23:19 0° 229° (SW) 3,056 10.6 -5.6°
Reaches altitude 10° 17:25:34 10° 233° (SW) 2,195 9.8 -5.9°
Maximum altitude 17:30:33 64° 315° (NW) 856 6.4 -6.6°
Drops below altitude 10° 17:36:10 10° 37° (NE) 2,460 8.1 -7.4°
Enters shadow 17:37:53 - 40° (NE) 3,113 8.6 -7.7°
Sets 17:38:48 0° 41° (NE) 3,456 - -7.8°
